PRDAC SNIO-SNIB

Flight info

Callsign PRDAC
Flight time 1h 12m
Altitude 3500
Route 112002S0385739W 113458S0391550W 115425S0393726W 120844S0394646W DCT 122153S0400239W
Aircraft P28R/L-SDGRY/S

Departure

Time 2026-04-25 19:39
Airport Cipó Airport (SNIO)

Arrival

Time 2026-04-25 20:52
Airport Itaberaba Airport (SNIB)
Time Latitude Longitude Altitude Speed Heading
2026-04-25 18:42 -11.12404 -38.49354 726 ft 0 kts 291°
2026-04-25 18:47 -11.12404 -38.49353 728 ft 0 kts 292°
2026-04-25 18:52 -11.12405 -38.49353 723 ft 0 kts 293°
2026-04-25 18:53 -11.12405 -38.49352 726 ft 0 kts 293°
2026-04-25 19:01 -11.12405 -38.49351 726 ft 0 kts 295°
2026-04-25 19:07 -11.12405 -38.49350 723 ft 0 kts 296°
2026-04-25 19:08 -11.12406 -38.49350 728 ft 0 kts 296°
2026-04-25 19:14 -11.12406 -38.49349 728 ft 0 kts 297°
2026-04-25 19:21 -11.12406 -38.49348 726 ft 0 kts 299°
2026-04-25 19:21 -11.12407 -38.49348 726 ft 0 kts 299°
2026-04-25 19:30 -11.12407 -38.49347 723 ft 0 kts 300°
2026-04-25 19:32 -11.12407 -38.49348 723 ft 1 kts 300°
2026-04-25 19:33 -11.12376 -38.49321 724 ft 8 kts 13°
2026-04-25 19:33 -11.12365 -38.49316 724 ft 0 kts 46°
2026-04-25 19:34 -11.12355 -38.49309 724 ft 6 kts 25°
2026-04-25 19:35 -11.12346 -38.49305 724 ft 0 kts 20°
2026-04-25 19:36 -11.12319 -38.49304 725 ft 7 kts 337°
2026-04-25 19:36 -11.12290 -38.49322 726 ft 2 kts 108°
2026-04-25 19:36 -11.12291 -38.49321 725 ft 0 kts 110°
2026-04-25 19:37 -11.12305 -38.49286 724 ft 22 kts 114°
2026-04-25 19:37 -11.12403 -38.49029 726 ft 55 kts 111°
2026-04-25 19:38 -11.12551 -38.48598 742 ft 70 kts 110°
2026-04-25 19:38 -11.12731 -38.48118 861 ft 71 kts 112°
2026-04-25 19:38 -11.12910 -38.47595 904 ft 82 kts 107°
2026-04-25 19:38 -11.13023 -38.47027 960 ft 83 kts 104°
2026-04-25 19:39 -11.13097 -38.46437 1021 ft 84 kts 103°
2026-04-25 19:39 -11.12995 -38.45841 1181 ft 90 kts 69°
2026-04-25 19:39 -11.12478 -38.45460 1247 ft 97 kts 18°
2026-04-25 19:39 -11.11809 -38.45531 1362 ft 99 kts 335°
2026-04-25 19:40 -11.11343 -38.46029 1499 ft 97 kts 290°
2026-04-25 19:40 -11.11090 -38.46653 1607 ft 98 kts 290°
2026-04-25 19:40 -11.10798 -38.47282 1715 ft 98 kts 287°
2026-04-25 19:40 -11.10563 -38.47929 1822 ft 98 kts 284°
2026-04-25 19:41 -11.10307 -38.48574 1970 ft 98 kts 284°
2026-04-25 19:41 -11.10108 -38.49235 2129 ft 97 kts 269°
2026-04-25 19:41 -11.10266 -38.49864 2292 ft 90 kts 231°
2026-04-25 19:41 -11.10355 -38.50050 2333 ft 91 kts 236°
2026-04-25 19:42 -11.10771 -38.51049 2511 ft 91 kts 233°
2026-04-25 19:42 -11.10988 -38.51656 2615 ft 93 kts 239°
2026-04-25 19:42 -11.11232 -38.52259 2721 ft 91 kts 236°
2026-04-25 19:42 -11.11646 -38.52710 2830 ft 87 kts 210°
2026-04-25 19:43 -11.12039 -38.53195 2894 ft 89 kts 221°
2026-04-25 19:43 -11.12434 -38.53672 2982 ft 89 kts 223°
2026-04-25 19:43 -11.12780 -38.54191 3102 ft 87 kts 223°
2026-04-25 19:43 -11.13138 -38.54699 3198 ft 89 kts 225°
2026-04-25 19:44 -11.13504 -38.55203 3286 ft 89 kts 224°
2026-04-25 19:44 -11.13855 -38.55717 3372 ft 89 kts 225°
2026-04-25 19:44 -11.14209 -38.56233 3463 ft 89 kts 224°
2026-04-25 19:44 -11.14562 -38.56753 3547 ft 90 kts 224°
2026-04-25 19:45 -11.14899 -38.57290 3612 ft 90 kts 224°
2026-04-25 19:45 -11.15238 -38.57825 3688 ft 90 kts 228°
2026-04-25 19:45 -11.15606 -38.58324 3766 ft 89 kts 223°
2026-04-25 19:45 -11.15968 -38.58838 3811 ft 90 kts 221°
2026-04-25 19:46 -11.16313 -38.59376 3886 ft 90 kts 224°
2026-04-25 19:46 -11.16675 -38.59899 3993 ft 90 kts 226°
2026-04-25 19:46 -11.17043 -38.60416 4086 ft 90 kts 224°
2026-04-25 19:46 -11.17408 -38.60951 4155 ft 93 kts 224°
2026-04-25 19:47 -11.17784 -38.61477 4259 ft 91 kts 224°
2026-04-25 19:47 -11.18160 -38.61998 4348 ft 91 kts 223°
2026-04-25 19:47 -11.18528 -38.62517 4439 ft 90 kts 225°
2026-04-25 19:47 -11.18898 -38.63032 4505 ft 92 kts 224°
2026-04-25 19:48 -11.19259 -38.63564 4593 ft 92 kts 223°
2026-04-25 19:48 -11.19642 -38.64091 4675 ft 94 kts 226°
2026-04-25 19:48 -11.20004 -38.64641 4753 ft 93 kts 227°
2026-04-25 19:48 -11.20348 -38.65199 4814 ft 93 kts 227°
2026-04-25 19:49 -11.20664 -38.65778 4886 ft 93 kts 230°
2026-04-25 19:49 -11.20774 -38.65972 4913 ft 93 kts 229°
2026-04-25 19:49 -11.21309 -38.66921 5066 ft 93 kts 231°
2026-04-25 19:49 -11.21658 -38.67525 5017 ft 108 kts 231°
2026-04-25 19:50 -11.22541 -38.68950 4840 ft 129 kts 233°
2026-04-25 19:50 -11.22931 -38.69807 4733 ft 140 kts 249°
2026-04-25 19:50 -11.23178 -38.70790 4626 ft 145 kts 251°
2026-04-25 19:51 -11.23453 -38.71788 4522 ft 146 kts 250°
2026-04-25 19:51 -11.23743 -38.72757 4520 ft 140 kts 250°
2026-04-25 19:51 -11.24009 -38.73694 4518 ft 137 kts 250°
2026-04-25 19:51 -11.24264 -38.74622 4514 ft 135 kts 251°
2026-04-25 19:52 -11.24528 -38.75534 4507 ft 133 kts 250°
2026-04-25 19:52 -11.24777 -38.76434 4505 ft 134 kts 251°
2026-04-25 19:52 -11.25048 -38.77334 4500 ft 132 kts 246°
2026-04-25 19:52 -11.25373 -38.78206 4500 ft 132 kts 245°
2026-04-25 19:53 -11.25683 -38.79076 4501 ft 131 kts 245°
2026-04-25 19:53 -11.26001 -38.79950 4504 ft 132 kts 244°
2026-04-25 19:53 -11.26317 -38.80835 4502 ft 133 kts 246°
2026-04-25 19:53 -11.26649 -38.81717 4522 ft 134 kts 243°
2026-04-25 19:54 -11.26992 -38.82617 4503 ft 136 kts 243°
2026-04-25 19:54 -11.27340 -38.83505 4507 ft 135 kts 243°
2026-04-25 19:54 -11.27699 -38.84381 4511 ft 136 kts 243°
2026-04-25 19:54 -11.27827 -38.84683 4517 ft 137 kts 243°
2026-04-25 19:55 -11.28463 -38.86177 4515 ft 140 kts 242°
2026-04-25 19:55 -11.28854 -38.87085 4520 ft 139 kts 243°
2026-04-25 19:55 -11.29245 -38.87978 4520 ft 137 kts 242°
2026-04-25 19:55 -11.29623 -38.88870 4513 ft 137 kts 242°
2026-04-25 19:56 -11.29991 -38.89760 4516 ft 135 kts 243°
2026-04-25 19:56 -11.30384 -38.90616 4500 ft 131 kts 236°
2026-04-25 19:56 -11.30940 -38.91320 4507 ft 126 kts 224°
2026-04-25 19:56 -11.31478 -38.92026 4503 ft 128 kts 230°
2026-04-25 19:57 -11.31943 -38.92799 4506 ft 128 kts 234°
2026-04-25 19:57 -11.32406 -38.93554 4506 ft 128 kts 233°
2026-04-25 19:57 -11.32881 -38.94309 4509 ft 126 kts 233°
2026-04-25 19:57 -11.33354 -38.95064 4511 ft 125 kts 233°
2026-04-25 19:58 -11.33815 -38.95820 4512 ft 126 kts 233°
2026-04-25 19:58 -11.34287 -38.96576 4508 ft 125 kts 233°
2026-04-25 19:58 -11.34803 -38.97274 4510 ft 124 kts 227°
2026-04-25 19:58 -11.35321 -38.97982 4512 ft 125 kts 229°
2026-04-25 19:59 -11.35844 -38.98692 4516 ft 125 kts 227°
2026-04-25 19:59 -11.36362 -38.99409 4520 ft 127 kts 229°
2026-04-25 19:59 -11.36865 -39.00158 4519 ft 129 kts 232°
2026-04-25 19:59 -11.37352 -39.00926 4518 ft 129 kts 233°
2026-04-25 20:00 -11.37858 -39.01663 4513 ft 128 kts 230°
2026-04-25 20:00 -11.38035 -39.01910 4509 ft 128 kts 230°
2026-04-25 20:00 -11.38896 -39.03138 4513 ft 128 kts 230°
2026-04-25 20:00 -11.39412 -39.03879 4515 ft 128 kts 230°
2026-04-25 20:01 -11.40451 -39.05358 4518 ft 128 kts 230°
2026-04-25 20:01 -11.40966 -39.06094 4516 ft 128 kts 230°
2026-04-25 20:01 -11.41481 -39.06831 4512 ft 127 kts 230°
2026-04-25 20:02 -11.41995 -39.07564 4515 ft 127 kts 230°
2026-04-25 20:02 -11.42507 -39.08298 4512 ft 127 kts 230°
2026-04-25 20:02 -11.43016 -39.09021 4508 ft 127 kts 230°
2026-04-25 20:02 -11.43529 -39.09755 4506 ft 127 kts 230°
2026-04-25 20:03 -11.44046 -39.10489 4503 ft 127 kts 230°
2026-04-25 20:03 -11.44556 -39.11227 4504 ft 128 kts 230°
2026-04-25 20:03 -11.45074 -39.11960 4505 ft 127 kts 228°
2026-04-25 20:03 -11.45631 -39.12656 4499 ft 126 kts 225°
2026-04-25 20:04 -11.46179 -39.13355 4497 ft 126 kts 227°
2026-04-25 20:04 -11.46731 -39.14049 4496 ft 126 kts 226°
2026-04-25 20:04 -11.47286 -39.14740 4499 ft 125 kts 226°
2026-04-25 20:04 -11.47826 -39.15419 4496 ft 125 kts 226°
2026-04-25 20:05 -11.48374 -39.16107 4501 ft 125 kts 225°
2026-04-25 20:05 -11.48924 -39.16801 4501 ft 126 kts 227°
2026-04-25 20:05 -11.49472 -39.17494 4495 ft 126 kts 226°
2026-04-25 20:05 -11.50017 -39.18189 4497 ft 125 kts 226°
2026-04-25 20:06 -11.50563 -39.18883 4495 ft 125 kts 227°
2026-04-25 20:06 -11.51113 -39.19573 4498 ft 126 kts 225°
2026-04-25 20:06 -11.51663 -39.20270 4497 ft 126 kts 227°
2026-04-25 20:06 -11.52206 -39.20953 4500 ft 122 kts 226°
2026-04-25 20:07 -11.52737 -39.21626 4501 ft 124 kts 226°
2026-04-25 20:07 -11.53285 -39.22316 4498 ft 124 kts 226°
2026-04-25 20:07 -11.53823 -39.22988 4496 ft 125 kts 226°
2026-04-25 20:07 -11.54372 -39.23675 4497 ft 126 kts 226°
2026-04-25 20:08 -11.54926 -39.24364 4497 ft 126 kts 226°
2026-04-25 20:08 -11.55481 -39.25052 4499 ft 126 kts 226°
2026-04-25 20:08 -11.56038 -39.25739 4495 ft 126 kts 226°
2026-04-25 20:08 -11.56596 -39.26434 4495 ft 126 kts 226°
2026-04-25 20:09 -11.57175 -39.27098 4499 ft 124 kts 221°
2026-04-25 20:09 -11.57766 -39.27744 4501 ft 125 kts 223°
2026-04-25 20:09 -11.58342 -39.28399 4498 ft 126 kts 223°
2026-04-25 20:09 -11.58933 -39.29054 4497 ft 125 kts 223°
2026-04-25 20:10 -11.59519 -39.29710 4498 ft 125 kts 223°
2026-04-25 20:10 -11.60102 -39.30366 4497 ft 124 kts 224°
2026-04-25 20:10 -11.60686 -39.31016 4500 ft 125 kts 222°
2026-04-25 20:10 -11.61265 -39.31677 4497 ft 125 kts 224°
2026-04-25 20:11 -11.61853 -39.32323 4494 ft 123 kts 223°
2026-04-25 20:11 -11.62430 -39.32970 4496 ft 124 kts 223°
2026-04-25 20:11 -11.62998 -39.33632 4496 ft 124 kts 223°
2026-04-25 20:11 -11.63574 -39.34288 4491 ft 124 kts 223°
2026-04-25 20:12 -11.64155 -39.34936 4491 ft 124 kts 221°
2026-04-25 20:12 -11.64749 -39.35547 4492 ft 123 kts 220°
2026-04-25 20:12 -11.65346 -39.36169 4496 ft 123 kts 220°
2026-04-25 20:12 -11.65549 -39.36380 4495 ft 123 kts 220°
2026-04-25 20:13 -11.66547 -39.37415 4493 ft 122 kts 220°
2026-04-25 20:13 -11.67141 -39.38028 4493 ft 121 kts 220°
2026-04-25 20:13 -11.67728 -39.38641 4495 ft 121 kts 220°
2026-04-25 20:13 -11.68326 -39.39260 4489 ft 123 kts 220°
2026-04-25 20:14 -11.68925 -39.39878 4494 ft 123 kts 220°
2026-04-25 20:14 -11.69532 -39.40494 4496 ft 124 kts 220°
2026-04-25 20:14 -11.70144 -39.41111 4490 ft 123 kts 220°
2026-04-25 20:14 -11.70751 -39.41731 4488 ft 124 kts 220°
2026-04-25 20:15 -11.71354 -39.42335 4497 ft 122 kts 220°
2026-04-25 20:15 -11.71958 -39.42948 4499 ft 123 kts 220°
2026-04-25 20:15 -11.72560 -39.43574 4494 ft 124 kts 220°
2026-04-25 20:15 -11.73172 -39.44190 4491 ft 123 kts 220°
2026-04-25 20:16 -11.73784 -39.44795 4492 ft 122 kts 220°
2026-04-25 20:16 -11.74387 -39.45410 4493 ft 123 kts 220°
2026-04-25 20:16 -11.74987 -39.46032 4488 ft 124 kts 220°
2026-04-25 20:16 -11.75599 -39.46651 4491 ft 124 kts 220°
2026-04-25 20:17 -11.76207 -39.47268 4494 ft 123 kts 220°
2026-04-25 20:17 -11.76804 -39.47874 4493 ft 123 kts 220°
2026-04-25 20:17 -11.77409 -39.48491 4491 ft 123 kts 220°
2026-04-25 20:17 -11.78018 -39.49104 4495 ft 123 kts 220°
2026-04-25 20:18 -11.78627 -39.49718 4491 ft 123 kts 220°
2026-04-25 20:18 -11.79237 -39.50326 4490 ft 124 kts 220°
2026-04-25 20:18 -11.79865 -39.50950 4492 ft 127 kts 220°
2026-04-25 20:18 -11.80510 -39.51582 4492 ft 130 kts 219°
2026-04-25 20:19 -11.81166 -39.52231 4505 ft 133 kts 219°
2026-04-25 20:19 -11.81834 -39.52890 4507 ft 134 kts 219°
2026-04-25 20:19 -11.82497 -39.53540 4511 ft 134 kts 219°
2026-04-25 20:19 -11.83169 -39.54209 4509 ft 136 kts 219°
2026-04-25 20:20 -11.83842 -39.54885 4510 ft 136 kts 220°
2026-04-25 20:20 -11.84521 -39.55557 4509 ft 136 kts 219°
2026-04-25 20:20 -11.85201 -39.56241 4508 ft 138 kts 219°
2026-04-25 20:20 -11.85891 -39.56928 4509 ft 138 kts 219°
2026-04-25 20:21 -11.86589 -39.57607 4513 ft 139 kts 219°
2026-04-25 20:21 -11.87287 -39.58293 4508 ft 140 kts 219°
2026-04-25 20:21 -11.87965 -39.59008 4508 ft 140 kts 223°
2026-04-25 20:21 -11.88626 -39.59725 4508 ft 140 kts 222°
2026-04-25 20:22 -11.89290 -39.60449 4507 ft 139 kts 223°
2026-04-25 20:22 -11.89515 -39.60692 4507 ft 140 kts 222°
2026-04-25 20:22 -11.90635 -39.61878 4491 ft 138 kts 218°
2026-04-25 20:22 -11.91437 -39.62400 4495 ft 136 kts 206°
2026-04-25 20:23 -11.92245 -39.62899 4500 ft 135 kts 207°
2026-04-25 20:23 -11.93025 -39.63455 4496 ft 138 kts 213°
2026-04-25 20:23 -11.93784 -39.64058 4497 ft 138 kts 213°
2026-04-25 20:23 -11.94542 -39.64650 4498 ft 137 kts 213°
2026-04-25 20:24 -11.95280 -39.65237 4498 ft 135 kts 214°
2026-04-25 20:24 -11.96020 -39.65819 4496 ft 134 kts 213°
2026-04-25 20:24 -11.96763 -39.66399 4495 ft 135 kts 213°
2026-04-25 20:24 -11.97501 -39.66991 4496 ft 134 kts 214°
2026-04-25 20:25 -11.98241 -39.67581 4494 ft 136 kts 213°
2026-04-25 20:25 -11.98733 -39.67979 4491 ft 136 kts 213°
2026-04-25 20:25 -11.99486 -39.68593 4494 ft 136 kts 213°
2026-04-25 20:25 -12.00230 -39.69188 4494 ft 136 kts 213°
2026-04-25 20:26 -12.00978 -39.69785 4496 ft 136 kts 213°
2026-04-25 20:26 -12.01715 -39.70376 4494 ft 137 kts 213°
2026-04-25 20:26 -12.02453 -39.70970 4496 ft 137 kts 214°
2026-04-25 20:26 -12.03202 -39.71566 4494 ft 136 kts 213°
2026-04-25 20:27 -12.03948 -39.72156 4492 ft 136 kts 213°
2026-04-25 20:27 -12.04690 -39.72747 4492 ft 135 kts 214°
2026-04-25 20:27 -12.05431 -39.73333 4493 ft 135 kts 213°
2026-04-25 20:27 -12.06174 -39.73924 4491 ft 136 kts 214°
2026-04-25 20:28 -12.06924 -39.74512 4494 ft 136 kts 213°
2026-04-25 20:28 -12.07676 -39.75102 4494 ft 136 kts 213°
2026-04-25 20:28 -12.08420 -39.75684 4493 ft 136 kts 213°
2026-04-25 20:28 -12.09171 -39.76272 4494 ft 136 kts 214°
2026-04-25 20:29 -12.09923 -39.76851 4491 ft 135 kts 213°
2026-04-25 20:29 -12.10692 -39.77442 4494 ft 135 kts 213°
2026-04-25 20:29 -12.11413 -39.78041 4487 ft 137 kts 220°
2026-04-25 20:29 -12.11979 -39.78811 4495 ft 137 kts 231°
2026-04-25 20:30 -12.12552 -39.79591 4492 ft 137 kts 228°
2026-04-25 20:30 -12.13156 -39.80348 4497 ft 138 kts 227°
2026-04-25 20:30 -12.13752 -39.81119 4496 ft 138 kts 227°
2026-04-25 20:30 -12.14352 -39.81886 4498 ft 138 kts 227°
2026-04-25 20:31 -12.14989 -39.82620 4496 ft 138 kts 223°
2026-04-25 20:31 -12.15628 -39.83354 4495 ft 138 kts 225°
2026-04-25 20:31 -12.16266 -39.84085 4490 ft 137 kts 224°
2026-04-25 20:31 -12.16880 -39.84806 4490 ft 136 kts 225°
2026-04-25 20:32 -12.17504 -39.85533 4493 ft 135 kts 224°
2026-04-25 20:32 -12.18122 -39.86256 4495 ft 135 kts 225°
2026-04-25 20:32 -12.18746 -39.86983 4493 ft 137 kts 224°
2026-04-25 20:32 -12.19376 -39.87716 4491 ft 138 kts 224°
2026-04-25 20:33 -12.20014 -39.88452 4495 ft 138 kts 224°
2026-04-25 20:33 -12.20650 -39.89190 4498 ft 139 kts 224°
2026-04-25 20:33 -12.21292 -39.89928 4497 ft 139 kts 224°
2026-04-25 20:33 -12.21713 -39.90415 4500 ft 139 kts 224°
2026-04-25 20:34 -12.22559 -39.91398 4499 ft 139 kts 224°
2026-04-25 20:34 -12.23197 -39.92140 4496 ft 139 kts 225°
2026-04-25 20:34 -12.23836 -39.92883 4498 ft 139 kts 224°
2026-04-25 20:34 -12.24473 -39.93628 4498 ft 139 kts 225°
2026-04-25 20:35 -12.25106 -39.94372 4494 ft 139 kts 225°
2026-04-25 20:35 -12.25741 -39.95109 4497 ft 138 kts 224°
2026-04-25 20:35 -12.26376 -39.95848 4490 ft 138 kts 225°
2026-04-25 20:35 -12.27013 -39.96576 4493 ft 138 kts 224°
2026-04-25 20:36 -12.27646 -39.97297 4496 ft 138 kts 224°
2026-04-25 20:36 -12.28292 -39.98024 4492 ft 138 kts 224°
2026-04-25 20:36 -12.28935 -39.98759 4490 ft 138 kts 225°
2026-04-25 20:36 -12.29581 -39.99488 4491 ft 139 kts 224°
2026-04-25 20:37 -12.30225 -40.00225 4491 ft 139 kts 225°
2026-04-25 20:37 -12.30870 -40.00958 4489 ft 138 kts 224°
2026-04-25 20:37 -12.31516 -40.01688 4491 ft 139 kts 224°
2026-04-25 20:37 -12.32156 -40.02426 4488 ft 138 kts 224°
2026-04-25 20:38 -12.32784 -40.03154 4494 ft 139 kts 224°
2026-04-25 20:38 -12.33427 -40.03893 4489 ft 139 kts 224°
2026-04-25 20:38 -12.34059 -40.04629 4491 ft 137 kts 225°
2026-04-25 20:38 -12.34677 -40.05376 4493 ft 137 kts 225°
2026-04-25 20:39 -12.35297 -40.06114 4492 ft 137 kts 225°
2026-04-25 20:39 -12.35922 -40.06853 4493 ft 136 kts 225°
2026-04-25 20:39 -12.36620 -40.07504 4488 ft 136 kts 217°
2026-04-25 20:39 -12.37095 -40.07927 4490 ft 137 kts 217°
2026-04-25 20:40 -12.38050 -40.08796 4477 ft 138 kts 217°
2026-04-25 20:40 -12.38782 -40.09452 4359 ft 145 kts 217°
2026-04-25 20:40 -12.39552 -40.10138 4245 ft 149 kts 218°
2026-04-25 20:40 -12.40341 -40.10839 4128 ft 151 kts 217°
2026-04-25 20:41 -12.41140 -40.11550 4005 ft 153 kts 217°
2026-04-25 20:41 -12.41944 -40.12261 3891 ft 154 kts 217°
2026-04-25 20:41 -12.42750 -40.12975 3777 ft 153 kts 217°
2026-04-25 20:41 -12.43557 -40.13694 3680 ft 154 kts 217°
2026-04-25 20:42 -12.44360 -40.14406 3609 ft 153 kts 218°
2026-04-25 20:42 -12.45166 -40.15124 3532 ft 154 kts 217°
2026-04-25 20:42 -12.45967 -40.15846 3460 ft 152 kts 218°
2026-04-25 20:42 -12.46703 -40.16596 3387 ft 151 kts 223°
2026-04-25 20:43 -12.47400 -40.17394 3317 ft 151 kts 225°
2026-04-25 20:43 -12.48005 -40.18265 3222 ft 146 kts 232°
2026-04-25 20:43 -12.48532 -40.19124 3092 ft 141 kts 236°
2026-04-25 20:43 -12.48999 -40.19997 2963 ft 139 kts 237°
2026-04-25 20:44 -12.49474 -40.20859 2838 ft 139 kts 237°
2026-04-25 20:44 -12.49942 -40.21717 2711 ft 137 kts 237°
2026-04-25 20:44 -12.50233 -40.22654 2560 ft 142 kts 260°
2026-04-25 20:44 -12.50117 -40.23650 2493 ft 139 kts 283°
2026-04-25 20:45 -12.49907 -40.24580 2483 ft 132 kts 281°
2026-04-25 20:45 -12.49700 -40.25479 2487 ft 129 kts 283°
2026-04-25 20:45 -12.49484 -40.26356 2488 ft 126 kts 284°
2026-04-25 20:45 -12.49215 -40.27193 2489 ft 121 kts 289°
2026-04-25 20:46 -12.48866 -40.27961 2489 ft 117 kts 296°
2026-04-25 20:46 -12.48547 -40.28724 2485 ft 116 kts 294°
2026-04-25 20:46 -12.48382 -40.29509 2480 ft 111 kts 265°
2026-04-25 20:46 -12.48649 -40.30222 2486 ft 107 kts 229°
2026-04-25 20:47 -12.49219 -40.30662 2484 ft 101 kts 202°
2026-04-25 20:47 -12.49852 -40.30929 2482 ft 95 kts 182°
2026-04-25 20:47 -12.50445 -40.30781 2488 ft 87 kts 143°
2026-04-25 20:47 -12.50792 -40.30294 2498 ft 87 kts 114°
2026-04-25 20:48 -12.51114 -40.29737 2506 ft 94 kts 119°
2026-04-25 20:48 -12.51439 -40.29148 2506 ft 96 kts 118°
2026-04-25 20:48 -12.51761 -40.28545 2508 ft 97 kts 119°
2026-04-25 20:48 -12.52079 -40.27924 2514 ft 101 kts 118°
2026-04-25 20:49 -12.52420 -40.27269 2506 ft 108 kts 118°
2026-04-25 20:49 -12.52785 -40.26579 2510 ft 113 kts 118°
2026-04-25 20:49 -12.53154 -40.25871 2509 ft 115 kts 117°
2026-04-25 20:49 -12.53507 -40.25176 2503 ft 104 kts 118°
2026-04-25 20:50 -12.53773 -40.24544 2482 ft 91 kts 104°
2026-04-25 20:50 -12.53654 -40.23968 2469 ft 80 kts 63°
2026-04-25 20:50 -12.53168 -40.23735 2464 ft 82 kts
2026-04-25 20:50 -12.52585 -40.23954 2322 ft 96 kts 342°
2026-04-25 20:51 -12.52032 -40.24289 2285 ft 94 kts 320°
2026-04-25 20:51 -12.51550 -40.24762 2149 ft 97 kts 319°
2026-04-25 20:51 -12.51066 -40.25291 1902 ft 100 kts 319°
2026-04-25 20:51 -12.50599 -40.25882 1443 ft 108 kts 306°
2026-04-25 20:52 -12.50238 -40.26511 1012 ft 97 kts 295°
2026-04-25 20:52 -12.50062 -40.26893 929 ft 77 kts 300°
2026-04-25 20:52 -12.49900 -40.27178 936 ft 14 kts 297°
2026-04-25 20:52 -12.49854 -40.27271 939 ft 15 kts 299°
2026-04-25 20:53 -12.49828 -40.27341 941 ft 7 kts 152°
2026-04-25 20:53 -12.49866 -40.27270 939 ft 20 kts 115°
2026-04-25 20:53 -12.49958 -40.27081 935 ft 35 kts 117°
2026-04-25 20:53 -12.50075 -40.26848 927 ft 31 kts 126°
2026-04-25 20:54 -12.50115 -40.26836 925 ft 2 kts 200°
2026-04-25 20:54 -12.50153 -40.26819 926 ft 9 kts 111°
2026-04-25 20:54 -12.50168 -40.26794 924 ft 6 kts 174°
2026-04-25 20:54 -12.50175 -40.26806 926 ft 0 kts 298°
2026-04-25 21:00 -12.50176 -40.26806 926 ft 0 kts 298°
2026-04-25 21:04 -12.50176 -40.26805 917 ft 0 kts 297°